This demonstration page uses our WeatherBlox Daily Observations layout. Learn more.

38.80484, -77.04692

Hourly Observations for October 29, 2020

Temp ( °F °C ) Dew Point ( °F °C ) Humidity (%) Winds ( mph kmh ) Pressure ( in mb ) Visibility ( mi km ) Precip ( " mm )
12:11 am 00:11 Cloudy 64 17.8 60 15.6 87 87 NE 10 17 29.96 1015 8 12.87472 0 0
12:40 am 00:40 Cloudy 63 17.2 59 15 87 87 NE 10 17 29.95 1014 8 12.87472 0 0
12:52 am 00:52 Cloudy 63 17.2 58 14.4 84 84 NE 12 19 29.94 1014 9 14.48406 0 0
1:52 am 01:52 Cloudy 62 16.7 57 13.9 84 84 NE 9 15 29.92 1013 10 16.0934 0 0
2:52 am 02:52 Cloudy with Light Rain 61 16.1 57 13.9 87 87 ENE 6 9 29.91 1013 7 11.26538 0.001 0.001
3:52 am 03:52 Cloudy with Light Rain 61 16.1 58 14.4 90 90 NNE 6 9 29.88 1012 9 14.48406 0.04 1.016
4:21 am 04:21 Cloudy with Light Rain 60 15.6 58 14.4 93 93 NNE 6 9 29.87 1012 8 12.87472 0.001 0.001
4:46 am 04:46 Cloudy with Rain 59 15 57 14 94 94 NE 9 15 29.86 1011 4 6.43736 0.02 0.508
4:52 am 04:52 Cloudy with Light Rain 59 15 57 13.9 93 93 NE 9 15 29.85 1011 4 6.43736 0.03 0.762
5:52 am 05:52 Cloudy with Rain 58 14.4 57 13.9 97 97 NE 9 15 29.83 1010 4 6.43736 0.09 2.286
6:52 am 06:52 Cloudy with Rain 58 14.4 57 13.9 97 97 NE 7 11 29.82 1010 3 4.82802 0.25 6.35
7:18 am 07:18 Cloudy with Heavy Rain 59 15 57 13.9 93 93 NE 8 13 29.8 1009 2.5 4.02335 0.16 4.064
7:23 am 07:23 Cloudy with Rain 59 15 57 13.9 93 93 NE 10 17 29.79 1009 3 4.82802 0.18 4.572
7:34 am 07:34 Cloudy with Light Rain 59 15 57 13.9 93 93 NE 12 19 29.79 1009 3 4.82802 0.21 5.334
7:52 am 07:52 Cloudy with Light Rain 59 15 57 13.9 93 93 NE 9 15 29.77 1008 6 9.65604 0.21 5.334
8:52 am 08:52 Cloudy with Light Rain 59 15 57 13.9 93 93 ENE 8 13 29.74 1007 5 8.0467 0.03 0.762
9:15 am 09:15 Cloudy with Light Rain 59 15 57 13.9 93 93 ENE 9 15 29.73 1007 2.5 4.02335 0.07 1.778
9:29 am 09:29 Cloudy with Rain 59 15 57 13.9 93 93 NE 7 11 29.73 1007 0.75 1.207005 0.11 2.794
9:36 am 09:36 Cloudy with Rain 59 15 57 13.9 93 93 NE 6 9 29.72 1006 3 4.82802 0.16 4.064
9:52 am 09:52 Cloudy with Rain 59 15 58 14.4 96 96 NE 7 11 29.71 1006 2.5 4.02335 0.22 5.588
10:29 am 10:29 Cloudy with Rain 59 15 58 14.4 96 96 NNE 6 9 29.7 1006 3 4.82802 0.17 4.318
10:52 am 10:52 Cloudy with Heavy Rain 60 15.6 59 15 96 96 N 10 17 29.68 1005 2 3.21868 0.22 5.588
10:59 am 10:59 Cloudy with Heavy Rain 60 15.6 58 14.4 93 93 NNE 12 19 29.67 1005 1.5 2.41401 0.05 1.27
11:06 am 11:06 Cloudy with Rain 60 15.6 58 14.4 93 93 NE 10 17 29.66 1004 3 4.82802 0.08 2.032
11:19 am 11:19 Cloudy with Rain 60 15.6 58 14.4 93 93 NNE 9 15 29.65 1004 1.25 2.011675 0.11 2.794
11:41 am 11:41 Cloudy with Rain 60 15.6 58 14.4 93 93 NNE 8 13 29.64 1004 2 3.21868 0.29 7.366
11:52 am 11:52 Cloudy with Light Rain 60 15.6 59 15 96 96 N 7 11 29.63 1003 3 4.82802 0.32 8.128
12:52 pm 12:52 Cloudy with Light Rain 61 16.1 60 15.6 97 97 NE 8 13 29.56 1001 6 9.65604 0.09 2.286
1:11 pm 13:11 Cloudy with Rain 61 16.1 60 15.6 97 97 NE 9 15 29.53 1000 2 3.21868 0.03 0.762
1:21 pm 13:21 Cloudy with Heavy Rain 61 16.1 60 15.6 97 97 NNE 12 19 29.52 1000 1.25 2.011675 0.07 1.778
1:52 pm 13:52 Cloudy with Heavy Rain 61 16.1 60 15.6 97 97 NNE 12 19 29.46 998 1.25 2.011675 0.29 7.366
2:22 pm 14:22 Cloudy with Heavy Rain 62 16.7 61 16.1 96 96 NNE 13 20 29.42 996 1 1.60934 0.19 4.826
2:29 pm 14:29 Cloudy with Heavy Rain 62 16.7 61 16.1 96 96 NNE 13 20 29.41 996 1.25 2.011675 0.23 5.842
2:43 pm 14:43 Cloudy with Rain 63 17.2 61 16.1 93 93 NNE 14 22 29.39 995 1.5 2.41401 0.3 7.62
2:52 pm 14:52 Cloudy with Rain 62 16.7 61 16.1 96 96 N 12 19 29.38 995 1.5 2.41401 0.34 8.636
3:05 pm 15:05 Cloudy with Rain 62 16.7 61 16.1 96 96 N 12 19 29.37 995 2.5 4.02335 0.03 0.762
3:12 pm 15:12 Cloudy with Light Rain 63 17.2 61 16.1 93 93 N 10 17 29.37 995 4 6.43736 0.03 0.762
3:32 pm 15:32 Cloudy with Light Rain 63 17.2 61 16.1 93 93 N 9 15 29.36 994 4 6.43736 0.05 1.27
3:52 pm 15:52 Cloudy 64 17.8 62 16.7 93 93 NNW 12 19 29.38 995 10 16.0934 0.05 1.27
4:29 pm 16:29 Cloudy with Light Rain 62 16.7 60 15.6 93 93 NNW 18 30 29.41 996 8 12.87472 0.001 0.001
4:47 pm 16:47 Cloudy 61 16 57 14 88 88 WNW 15 24 29.43 997 10 16.0934 0.001 0.001
4:52 pm 16:52 Cloudy 60 15.6 57 13.9 90 90 NW 14 22 29.43 997 10 16.0934 0.001 0.001
5:10 pm 17:10 Cloudy 58 14.4 55 12.8 90 90 NW 17 28 29.46 998 10 16.0934 0 0
5:52 pm 17:52 Cloudy 55 12.8 52 11.1 90 90 NW 18 30 29.51 999 10 16.0934 0 0
6:38 pm 18:38 Cloudy 53 11.7 50 10 89 89 NNW 17 28 29.55 1001 10 16.0934 0 0
6:52 pm 18:52 Cloudy 53 11.7 50 10 89 89 NNW 17 28 29.55 1001 10 16.0934 0 0
7:52 pm 19:52 Cloudy 53 11.7 49 9.4 86 86 NNW 13 20 29.58 1002 10 16.0934 0 0
8:17 pm 20:17 Cloudy 53 11.7 50 10 89 89 N 8 13 29.59 1002 8 12.87472 0 0
8:40 pm 20:40 Cloudy with Light Rain 53 11.7 49 9.4 86 86 N 10 17 29.59 1002 8 12.87472 0.001 0.001
8:52 pm 20:52 Cloudy with Light Rain 53 11.7 50 10 89 89 N 10 17 29.6 1002 4 6.43736 0.02 0.508
9:35 pm 21:35 Cloudy with Light Rain 53 11.7 50 10 89 89 NNW 10 17 29.61 1003 9 14.48406 0.03 0.762
9:50 pm 21:50 Cloudy with Light Rain 54 12 50 10 88 88 NNW 10 17 29.62 1003 8 12.87472 0.03 0.762
9:52 pm 21:52 Cloudy with Light Rain 53 11.7 50 10 89 89 NNW 13 20 29.62 1003 8 12.87472 0.04 1.016
10:23 pm 22:23 Cloudy with Light Rain 53 11.7 50 10 89 89 N 12 19 29.63 1003 8 12.87472 0.001 0.001
10:52 pm 22:52 Cloudy with Light Rain 53 11.7 50 10 89 89 N 10 17 29.62 1003 10 16.0934 0.02 0.508
11:03 pm 23:03 Cloudy with Light Rain 53 11.7 50 10 89 89 N 12 19 29.62 1003 10 16.0934 0.001 0.001
11:52 pm 23:52 Cloudy 53 11.7 50 10 89 89 NNE 13 20 29.61 1003 10 16.0934 0.001 0.001

Powered by AerisWeather